Weather History for Marathon, FL

Change the Weather History Date:

Monday, February 24, 2014

  Actual Average Record
Temperature  
Mean Temperature 78 °F 72 °F  
Max Temperature 85 °F 77 °F 88 °F (2008)
Min Temperature 71 °F 67 °F 60 °F (1999)
Degree Days  
Heating Degree Days 0 1  
Month to date heating degree days 1 20  
Since 1 July heating degree days 35 79  
Cooling Degree Days 13 8  
Month to date cooling degree days 279 169  
Year to date cooling degree days 463 350  
Growing Degree Days 28 (Base 50)    
Moisture  
Dew Point 71 °F    
Average Humidity 77    
Maximum Humidity 93    
Minimum Humidity 61    
Precipitation  
Precipitation 0.00 in 0.08 in 0.16 in (2003)
Month to date precipitation 0.31 1.92  
Year to date precipitation 3.60 3.53  
Snow  
Snow 0.00 in - - ()
Month to date snowfall 0.0  
Since 1 July snowfall 0.0  
Snow Depth 0.00 in    
Sea Level Pressure  
Sea Level Pressure 30.03 in    
Wind  
Wind Speed 4 mph (NW)    
Max Wind Speed 13 mph    
Max Gust Speed 16 mph    
Visibility 10 miles    
Events      
T = Trace of Precipitation, MM = Missing Value Source: NWS Daily Summary

Daily Weather History Graph

Daily Weather History Graph

Search for Another Location

Airport:

Trip Planner

Search our weather history database for the weather conditions in past years. The results will help you decide how hot, cold, wet, or windy it might be!

Date:

Astronomy

Feb. 24, 2014 Rise Set
Actual Time 6:51 AM EST 6:23 PM EST
Civil Twilight 6:28 AM EST 6:46 PM EST
Nautical Twilight 6:01 AM EST 7:13 PM EST
Astronomical Twilight 5:35 AM EST 7:40 PM EST
Moon 2:29 AM EST (2/24) 1:41 PM EST (2/24)
Length of Visible Light 12h 18m
Length of Day
11h 32m
Waning Crescent, 28% of the Moon is Illuminated
Feb 24
Waning Crescent
Mar 1
New
Mar 8
First Quarter
Mar 16
Full
Mar 23
Last Quarter

Hourly Weather History & Observations

Time (EST) Temp. Heat Index Dew Point Humidity Pressure Visibility Wind Dir Wind Speed Gust Speed Precip Events Conditions
12:29 AM 77.0 °F - 72.0 °F 84% 30.03 in 10.0 mi SSE 3.5 mph - N/A   Mostly Cloudy
12:43 AM 77.0 °F - 72.0 °F 84% 30.03 in 10.0 mi SSE 3.5 mph - N/A   Scattered Clouds
12:53 AM 77.0 °F - 73.0 °F 88% 30.02 in 10.0 mi Calm Calm - N/A   Partly Cloudy
1:53 AM 75.9 °F - 72.0 °F 87% 30.01 in 10.0 mi Calm Calm - N/A   Partly Cloudy
2:30 AM 75.0 °F - 72.0 °F 90% 30.00 in 10.0 mi Calm Calm - N/A   Mostly Cloudy
2:53 AM 75.0 °F - 72.0 °F 90% 30.00 in 10.0 mi Calm Calm - N/A   Overcast
3:27 AM 73.9 °F - 72.0 °F 93% 30.00 in 10.0 mi Calm Calm - N/A   Partly Cloudy
3:53 AM 73.0 °F - 71.1 °F 93% 30.00 in 10.0 mi Calm Calm - N/A   Clear
4:53 AM 73.0 °F - 70.0 °F 90% 30.01 in 10.0 mi Calm Calm - N/A   Clear
5:53 AM 72.0 °F - 70.0 °F 93% 30.01 in 10.0 mi Calm Calm - N/A   Clear
6:53 AM 73.0 °F - 71.1 °F 93% 30.03 in 10.0 mi Calm Calm - N/A   Partly Cloudy
7:29 AM 75.0 °F - 73.0 °F 94% 30.04 in 10.0 mi Calm Calm - N/A   Mostly Cloudy
7:41 AM 75.9 °F - 72.0 °F 87% 30.04 in 10.0 mi Calm Calm - N/A   Overcast
7:53 AM 75.9 °F - 72.0 °F 87% 30.04 in 10.0 mi Calm Calm - N/A   Mostly Cloudy
8:04 AM 75.9 °F - 72.0 °F 87% 30.04 in 10.0 mi NNE 5.8 mph - N/A   Mostly Cloudy
8:36 AM 78.1 °F - 72.0 °F 81% 30.05 in 10.0 mi NNE 5.8 mph - N/A   Mostly Cloudy
8:53 AM 79.0 °F - 72.0 °F 79% 30.05 in 10.0 mi NNE 4.6 mph - N/A   Scattered Clouds
9:53 AM 81.0 °F 85.2 °F 72.0 °F 74% 30.06 in 10.0 mi SSE 3.5 mph - N/A   Clear
10:53 AM 81.0 °F 85.2 °F 72.0 °F 74% 30.05 in 10.0 mi Variable 3.5 mph - N/A   Clear
11:53 AM 84.9 °F 91.4 °F 73.0 °F 67% 30.04 in 10.0 mi South 5.8 mph - N/A   Clear
12:53 PM 84.0 °F 88.4 °F 70.0 °F 63% 30.02 in 10.0 mi South 4.6 mph - N/A   Clear
1:29 PM 82.9 °F 87.0 °F 70.0 °F 65% 30.01 in 10.0 mi Variable 4.6 mph - N/A   Mostly Cloudy
1:40 PM 82.0 °F 85.9 °F 70.0 °F 67% 30.01 in 10.0 mi West 4.6 mph - N/A   Scattered Clouds
1:53 PM 82.0 °F 85.9 °F 70.0 °F 67% 30.00 in 10.0 mi WSW 4.6 mph - N/A   Scattered Clouds
2:53 PM 82.0 °F 85.5 °F 69.1 °F 65% 29.99 in 10.0 mi NW 5.8 mph - N/A   Clear
3:53 PM 80.1 °F 83.8 °F 72.0 °F 76% 30.00 in 10.0 mi Variable 4.6 mph - N/A   Clear
4:53 PM 80.1 °F 83.6 °F 71.1 °F 74% 30.01 in 10.0 mi Variable 6.9 mph - N/A   Clear
5:53 PM 78.1 °F - 70.0 °F 76% 30.01 in 10.0 mi NW 5.8 mph - N/A   Clear
6:53 PM 77.0 °F - 64.9 °F 66% 30.03 in 10.0 mi NW 6.9 mph - N/A   Clear
7:53 PM 75.9 °F - 68.0 °F 76% 30.04 in 10.0 mi NW 8.1 mph - N/A   Clear
8:53 PM 75.9 °F - 69.1 °F 79% 30.05 in 10.0 mi NW 9.2 mph - N/A   Clear
9:53 PM 75.0 °F - 69.1 °F 82% 30.06 in 10.0 mi NW 8.1 mph - N/A   Clear
10:53 PM 75.9 °F - 70.0 °F 82% 30.06 in 10.0 mi NNW 9.2 mph - N/A   Clear
11:53 PM 75.9 °F - 69.1 °F 79% 30.05 in 10.0 mi North 9.2 mph - N/A   Clear